OBJECT X, 43779

Orbit data source: Space-Track

You're viewing an Uncataloged Satellite

Recently launched and/or uncataloged satellites may have evolving metadata. Metadata may include but not limited to: Owner, Maufacturer, Bus, Motor, and Mission.

OBJECT X, 43779 is a satellite in SSO that was launched on Mon, 03 Dec 2018 UTC via an FALCON 9 launch vehicle from the Air Force Western Test Range (AFWTR). Unknown objects in Earth's orbit typically refer to objects detected orbiting the Earth but have not yet been identified or cataloged. These objects could be anything from previously untracked satellites, spent rocket stages, debris from satellite collisions, or even natural meteoroids temporarily captured by Earth's gravity.

Loading next visibility...
OBJECT X details
Identifier
43779, 2018-099X
Orbit
SSO
Last TLE update11 hours ago
Origin
Flag of TBDRAAF (TBD)
ManufacturerU. NSW
MissionNon-operational Defense Imaging
Bus & MotorCUBESAT 3U, Unknown motor
Mass5 kg wet, 5 kg dry
Launch date (UTC)
2018-12-03 (6 years ago)
Launch vehicle
FALCON 9
Launch site
Air Force Western Test Range (AFWTR)
Object typeUnknown
Shape & HBRBox + 1 Pan, 0.3 m
Radar Cross Section0.035 m², Small (<0.1 m²)

Expand to show TLE details & history

TLE from 11 hours ago
0 OBJECT X
1 43779U 18099X   24361.13229862  .00006135  00000-0  45645-3 0  9998
2 43779  97.5202  49.4860 0016483  73.8330 286.4708 15.03203813331170
Epoch: 2024-12-26T03:10Z
Definitive object data (Epoch: 2024-12-26T03:10:30.6Z)
Latitude-0.00008°
Longitude-93.25757°
Altitude556.865 km
Speed7.585 km/s
True Right ascension03h 17m 56s
True Declination0° 00' 00"
Sunlit
Object was in full shadow at TLE epoch
Visualization TLE readout
Latitude-22.89006°
Longitude-89.63152°
Altitude566.708 km
Speed7.576 km/s
Apparent Right ascension02h 42m 38s
Apparent Declination-31° 40' 31"
Sunlit
Object is in full shadow
Visualization observer readout
Local Sidereal Time13:37:11
Azimuth296.82° NW
Elevation-74.416°
Doppler factor1
Orbital elements
Apogee altitude565.444 km
Perigee altitude542.592 km
Semi-major axis6,932.155 km
Eccentricity0.0016483
Inclination97.5202°
RAAN49.486°
Arg. of periapsis73.833°
True anomaly286.28956°
Mean anomaly286.4708°
Eccentric anomaly286.38019°
Mean motion3.76046 °/min
BSTAR0.00045645
Orbital period95.73 mins
Loading maneuver chart data...
Loading historical data...
Loading historical data...
Loading historical data...
Loading historical data...
Loading historical data...
Loading historical data...
Loading historical data...

OBJECT X Visibility forecast

Observer location: undefined°, undefined

Span
Click to sort rows by Start time (UTC) header in descending order
Start Az.
Max El. time (UTC)
Max El. Az.
Max El.
End time (UTC)
End Az.
6 mins2024-12-26 16:31:22.882Z3.355° NNE2024-12-26 16:34:22.882Z274.147° WNW42.176°2024-12-26 16:37:22.882Z204.788° SW
6 mins2024-12-27 03:16:22.882Z151.609° SSE2024-12-27 03:19:22.882Z58.577° ENE40.741°2024-12-27 03:22:22.882Z357.294° N
|